METEOR 2-17 DEB

Satellite information

Favourite Embed

Satellite Type and Status

DEBRISIN ORBIT

Key statistics

Satellite METEOR 2-17 DEB at a glance.

Uptime

13833

Days in orbit

Revolutions

≈ 14.0

Per day

Orbit

LEO

Low Earth Orbit

Inclination

82.5

Latest

Satellite identification and parameters

Extended collection of information and parameters for METEOR 2-17 DEB.

Object identification

Identified? True

Debris? True

Object name: METEOR 2-17 DEB

International designator: 1988-005X

Object number (NORAD): 31402

Object ID (CCSDS): 31402

Country: COMMONWEALTH OF INDEPENDENT STATES (CIS)

Current information (Y/N): Y

RCS size: SMALL

Orbital parameters

Period: 102.507 minutes

Inclination: 82.5414 deg

SMA: 7255.436 km

Apoapsis: 881.688 km

Periapsis: 872.914 km

RAAN: 55.1229 deg

Eccentricy: 0.00060461

Argument of periapsis: 86.1266 deg

Mean anomaly: 303.6974 deg

Mean motion: 14.04777271 rev/day

Mean motion (dot): 0.000043 rev/day2

B* drag term: 0.002672948 1/REarth

Two-line elements (TLE)

Creation date: Dec. 13, 2025, 5:47 p.m.

Reference frame: TEME

Reference center: EARTH

Epoch: Dec. 13, 2025, 4:15 a.m. UTC

TLE line 0: 0 METEOR 2-17 DEB

TLE line 1: 1 31402U 88005X 25347.17724390 .00004300 00000-0 26729-2 0 9990

TLE line 2: 2 31402 82.5414 55.1229 0006046 86.1266 303.6974 14.04777271972601

Live tracking on map

Real-time ground track for satellite METEOR 2-17 DEB.

In-orbit conjunctions

A list of the most updated potential collisions computed for object METEOR 2-17 DEB.

Target Orbit TCA Probability of collision Miss distance Type
COSMOS 1365 LEO 2025-01-16 01:23:57 0.0001056524 918.0 (m) PAYLOAD
COSMOS 249 DEB LEO 2024-09-27 04:49:33 0.0001898611 727.0 (m) DEBRIS

Associated space launch

Second generation soviet meteorological satellite

METEOR 2-17 DEB was lifted into orbit during the mission ‘Tsiklon-3 | Meteor-2 17’, on board a Tsiklon-3 space rocket.

The launch took place on Jan. 30, 1988, 10:59 a.m. from 32/1.

For more information about the launch, click the button.

Launch to space Tsiklon-3 | Meteor-2 17
Tsiklon-3 | Meteor-2 17

Agency: N/A

Status: Launch Successful

Launch date: Jan. 30, 1988, 10:59 a.m. UTC

Rocket: Tsiklon-3

Launch pad: 32/1

Location: Plesetsk Cosmodrome, Russian Federation

...

Latest news about this satellite

There are no fresh news available about this satellite. Check back as we update our databases every day.


Newsletter sign-up

Weekly statistics, charts and insights to help you stay on top of the space industry.